Location: Enborne
(51.3833°N, 1.3667°W)
Time: 13:55:52
(UTC+00:00)

USA 234 - Pass Details

Date: 18 September 2020
Orbit: 1102 x 1106 km, 123.0° (Epoch: 16 October)

Event Time Altitude Azimuth Distance (km) Brightness Sun altitude
Exits shadow 20:19:21 - 61° (ENE) 3,298 5.5 -19.8°
Reaches altitude 10° 20:20:15 10° 63° (ENE) 2,968 5.2 -19.9°
Maximum altitude 20:26:37 51° 139° (SE) 1,358 3.3 -20.8°
Drops below altitude 10° 20:32:57 10° 214° (SW) 2,958 5.5 -21.6°
Sets 20:35:31 0° 220° (SW) 3,914 6.2 -21.9°
